Location: Six Mile Lake
(44.9000°N, 79.7170°W)
Time: 06:23:53
(UTC-04:00)

O/OREOS (USA 219) - Visible Passes

Search period start: 30 June 2022 00:00
Search period end: 10 July 2022 00:00
Orbit: 621 x 646 km, 72.0° (Epoch: 22 May)

Date Brightness Start Highest point End Pass type
(mag) Time Alt. Az. Time Alt. Az. Time Alt. Az.
30 Jun ? 01:16:38 10° N 01:20:53 36° ENE 01:23:01 23° ESE visible
30 Jun ? 02:56:19 10° NW 03:00:09 27° WSW 03:00:25 26° WSW visible
01 Jul ? 00:01:13 10° NNE 00:02:49 12° NE 00:04:26 10° ENE visible
01 Jul ? 01:38:27 10° NNW 01:43:05 74° ENE 01:44:13 50° SE visible
01 Jul ? 03:19:56 10° WNW 03:21:37 12° W 03:21:37 12° W visible
02 Jul ? 00:21:52 10° N 00:25:23 21° NE 00:28:03 13° E visible
02 Jul ? 02:00:37 10° NNW 02:05:06 51° WSW 02:05:28 50° SW visible
03 Jul ? 00:43:23 10° N 00:47:44 39° ENE 00:49:21 29° ESE visible
03 Jul ? 02:23:15 10° NW 02:26:45 24° W 02:26:45 24° W visible
03 Jul ? 23:27:42 10° NNE 23:29:43 13° NE 23:31:44 10° ENE visible
04 Jul ? 01:05:16 10° NNW 01:09:54 82° ENE 01:10:41 61° SE visible
04 Jul ? 02:47:18 10° W 02:48:07 11° W 02:48:07 11° W visible
04 Jul ? 23:48:35 10° N 23:52:15 23° NE 23:54:39 16° E visible
05 Jul ? 01:27:28 10° NW 01:31:53 46° WSW 01:32:05 45° WSW visible
06 Jul ? 00:10:10 10° NNW 00:14:35 43° ENE 00:16:04 33° ESE visible
06 Jul ? 01:50:11 10° NW 01:53:29 22° W 01:53:29 22° W visible
06 Jul ? 22:54:15 10° NNE 22:56:37 14° NE 22:58:58 10° ENE visible
07 Jul ? 00:32:05 10° NNW 00:36:43 89° WSW 00:37:31 61° SSE visible
07 Jul ? 23:15:18 10° N 23:19:07 25° NE 23:21:35 16° E visible
08 Jul ? 00:54:21 10° NW 00:58:41 41° WSW 00:59:01 40° WSW visible
08 Jul ? 23:36:56 10° NNW 23:41:25 48° ENE 23:43:06 32° ESE visible
09 Jul ? 01:17:10 10° NW 01:20:27 20° W 01:20:32 20° WSW visible
09 Jul ? 22:20:51 10° NNE 22:23:30 15° NE 22:26:08 10° E visible
